Location: Palm Bay
(27.9400°N, 80.7200°W)
Time: 05:29:56
(UTC-04:00)

Daily predictions for brighter satellites

Satellite Brightness Start Highest point End
(mag) Time Altitude Azimuth Time Altitude Azimuth Time Altitude Azimuth
ADEOS Rocket 4.1 03:13:48 10° NNE 03:18:33 44° ENE 03:18:33 44° ENE
CENTAUR R/B 4.3 03:18:55 10° NNW 03:26:24 39° NE 03:34:08 10° ESE
Resurs 1-4 Rocket 3.7 03:32:36 10° NNE 03:35:17 31° NNE 03:35:17 31° NNE
SL-16 R/B 3.1 03:39:58 52° NE 03:39:58 52° NE 03:45:04 10° N
ARIANE 5 R/B 4.0 03:41:59 10° NNE 03:44:46 33° NNE 03:44:46 33° NNE
CZ-2D R/B 3.4 03:53:22 10° N 03:56:19 34° N 03:56:19 34° N
Meteor 2-15 4.3 04:20:54 86° SSW 04:21:03 89° WSW 04:27:13 10° N
Cosmos 1833 Rocket 2.6 04:21:58 80° ENE 04:21:58 80° ENE 04:27:22 10° NNE
Cosmos 1269 Rocket 4.1 04:23:54 72° E 04:23:54 72° E 04:28:59 10° NNE
Cosmos 2082 Rocket 2.1 04:27:15 79° NW 04:27:15 79° NW 04:32:47 10° NNE
CZ-3A R/B 3.7 04:26:40 29° SSE 04:27:55 31° SE 04:43:10 10° E
Meteor 2-15 Rocket 4.3 04:30:02 68° S 04:30:54 89° W 04:37:04 10° N
DNEPR-1 R/B 4.3 04:31:32 10° NNW 04:35:45 54° ENE 04:40:28 10° SE
Meteor 2-5 Rocket 3.6 04:37:49 68° W 04:37:55 68° W 04:43:42 10° N
ADEOS II 3.4 04:33:34 10° NNE 04:38:23 36° E 04:41:50 17° SSE
Cosmos 1727 Rocket 4.3 04:45:02 45° WNW 04:45:02 45° WNW 04:50:47 10° N
CZ-4B R/B 4.4 04:41:19 10° NNE 04:46:13 37° E 04:50:32 13° SSE
Cosmos 158 Rocket 3.7 04:48:19 68° W 04:48:29 69° WNW 04:53:34 10° N
Okean 3 Rocket 4.2 04:56:19 25° SSE 04:58:37 54° E 05:02:55 10° NNE
Meteor 1-16 Rocket 3.9 04:55:57 10° N 05:01:16 79° W 05:04:53 21° S
Yuri Rocket 3.6 05:01:14 50° WSW 05:02:37 74° SSE 05:09:18 10° E
Cosmos 1153 Rocket 4.5 04:57:08 10° NNW 05:03:06 56° W 05:05:49 32° SSW
CZ-4B R/B 3.2 05:00:08 10° NNE 05:04:35 75° E 05:06:46 30° S
In-Cosmos 22 4.1 05:02:17 24° S 05:05:34 80° E 05:10:52 10° N
Cosmos 494 Rocket 4.5 05:06:53 17° S 05:10:41 57° ESE 05:15:41 10° NNE
USA 267 3.2 05:05:34 10° SE 05:12:06 86° SW 05:18:40 10° NW
Intelsat 5-3 Rocket 2.9 05:12:16 42° SW 05:12:52 45° SSW 05:15:51 10° ESE
BREEZE-M DEB (TANK) 4.1 05:07:36 28° SW 05:13:12 80° NW 05:17:17 10° NE
CENTAUR R/B 3.4 05:09:34 10° NW 05:17:11 42° WSW 05:24:55 10° S
Cosmos 1459 Rocket 3.9 05:11:40 10° N 05:17:52 78° W 05:24:09 10° S
Delta 2 Rocket 3.8 05:15:12 32° WSW 05:18:03 75° S 05:24:19 10° E
Okean O Rocket 1.5 05:17:34 10° N 05:21:57 66° WNW 05:24:12 27° SSW
Cosmos 1802 Rocket 4.0 05:15:57 10° N 05:22:23 86° W 05:28:43 10° S
SL-16 R/B 4.3 05:25:03 13° WNW 05:25:03 13° WNW 05:26:23 10° WNW
PSLV R/B 4.0 05:27:20 31° S 05:28:25 42° SE 05:31:37 10° ENE
Meteor 1-24 Rocket 4.3 05:27:00 27° WSW 05:29:02 36° WNW 05:34:10 10° NNW
Meteor 2-17 Rocket 4.3 05:24:14 10° N 05:30:15 74° W 05:36:17 10° S
Cosmos 1452 Rocket 4.4 05:28:50 10° NW 05:33:12 27° W 05:34:53 23° SW
Cosmos 1408 Rocket 4.1 05:28:54 10° S 05:33:16 60° E 05:37:40 10° NNE
Delta 2 Rocket 3.5 05:33:16 15° NW 05:35:55 51° NNE 05:39:10 10° E
Tiangong 1 0.9 05:37:48 15° NW 05:40:01 74° NE 05:42:49 10° ESE
Cosmos 1697 Rocket 2.6 05:35:54 10° NNW 05:41:30 76° WSW 05:47:04 10° SSE
SL-08 R/B 4.4 05:36:14 10° N 05:42:21 86° W 05:48:24 10° S
Delta 128 3.7 05:40:41 21° W 05:43:51 83° S 05:49:14 10° E
OAO 2 Rocket 4.4 05:40:57 15° SSW 05:44:55 37° SSE 05:49:46 10° E
PSLV R/B 4.0 05:43:48 10° N 05:47:51 40° WNW 05:51:15 14° SW
GPS 2-12 Rocket1 4.5 05:45:38 16° SW 05:48:22 26° S 05:52:17 10° ESE
SL-24 R/B 4.4 05:48:46 10° N 05:52:56 46° WNW 05:56:57 10° SSW
Cosmos 2221 2.6 05:49:52 10° NNW 05:54:02 54° W 05:58:10 10° S
MTI 3.7 05:53:56 10° S 05:57:09 66° W 06:00:21 10° NNW
Cosmos 1674 3.0 05:55:13 10° SSW 05:58:49 43° W 06:02:27 10° N
EO 1 Del DPAF 3.2 05:57:16 10° S 06:01:04 59° W 06:04:53 10° NNW
deb Kosmos-1763 4.1 06:00:52 10° SSW 06:04:39 87° W 06:08:30 10° NNE
Cosmos 1110 Rocket 4.1 05:59:25 10° NNW 06:04:45 90° E 06:09:59 10° SSE
Cosmos 1656 4.4 06:00:48 10° NW 06:05:19 27° WSW 06:09:51 10° SSW
Cosmos 2322 Rocket 4.3 06:03:07 10° N 06:08:09 32° ENE 06:13:10 10° SE
Cosmos 1184 Rocket 3.2 06:06:04 10° SSW 06:09:18 44° W 06:12:31 10° N
ISS -0.9 06:08:26 10° SSE 06:09:44 12° SE 06:11:01 10° ESE
CZ-3 R/B 2.6 05:52:46 12° WSW 06:11:12 65° SSE 06:16:29 10° E
Meteor PRIRODA 4.3 06:08:13 10° N 06:11:36 35° WNW 06:14:57 10° SW
Delta 168 3.6 06:09:44 10° SW 06:12:57 38° SSE 06:17:10 10° E
Cosmos 1980 Rocket 2.2 06:11:01 10° NNW 06:16:37 64° WSW 06:22:10 10° S
Aurora 2 Rocket 3.0 06:13:06 10° WSW 06:16:56 35° S 06:20:01 10° ESE
ADEOS II 3.5 06:14:06 10° NNW 06:17:47 20° WNW 06:21:28 10° WSW
Cosmos 1340 Rocket 3.8 06:16:03 10° SW 06:19:30 28° W 06:22:56 10° NNW
